Location: Saalfelden+am+Steinernen+Meer
(47.4274°N, 12.8411°E)
Time: 10:13:44
(UTC+02:00)

ISS - Visible Passes

Search period start: 22 September 2017 00:00
Search period end: 02 October 2017 00:00
Orbit: 401 x 407 km, 51.6° (Epoch: 22 September)

Date Brightness Start Highest point End Pass type
(mag) Time Alt. Az. Time Alt. Az. Time Alt. Az.
25 Sep -1.1 21:19:01 10° SW 21:19:30 13° SW 21:19:30 13° SW visible
26 Sep -3.1 20:26:58 10° SSW 20:29:51 33° SSE 20:29:51 33° SSE visible
27 Sep -2.3 19:35:16 10° S 19:37:46 20° SE 19:40:00 11° E visible
27 Sep -2.3 21:10:40 10° WSW 21:12:40 34° WSW 21:12:40 34° WSW visible
28 Sep -3.9 20:18:19 10° SW 20:21:34 67° SSE 20:22:40 37° E visible
28 Sep -0.5 21:55:03 10° W 21:55:19 12° W 21:55:19 12° W visible
29 Sep -3.2 19:26:10 10° SW 19:29:15 40° SE 19:32:22 10° ENE visible
29 Sep -2.8 21:02:29 10° W 21:05:10 45° NW 21:05:10 45° NW visible
30 Sep -3.7 20:09:58 10° WSW 20:13:14 70° NNW 20:14:56 26° ENE visible
30 Sep -0.6 21:46:55 10° WNW 21:47:34 14° WNW 21:47:34 14° WNW visible
01 Oct -3.8 19:17:32 10° WSW 19:20:48 78° SSE 19:24:05 10° ENE visible
01 Oct -2.7 20:54:21 10° W 20:57:14 39° NNW 20:57:14 39° NNW visible
